Regional Weather Roundup
Issued by NWS

Home | Current Version | Previous Version | Graphics & Text | Print | Product List | Glossary On
Versions: 1 2 3 4 5 6 7 8 9 10 11 12 13 14 15 16 17 18 19 20 21 22 23 24 25 26 27 28 29 30 31 32 33 34 35 36 37 38 39 40 41 42 43 44 45 46 47 48 49 50
000
ASUS43 KTOP 222008
RWRKS

WEATHER ROUNDUP FOR KANSAS
NATIONAL WEATHER SERVICE GOODLAND KS
200 PM CST MON DEC 22 2014

NOTE:  "FAIR" INDICATES FEW OR NO CLOUDS BELOW 12,000 FEET WITH NO
SIGNIFICANT WEATHER AND/OR OBSTRUCTIONS TO VISIBILITY.

KSZ001>006-013>018-027>032-041>047-222100-
NORTHWEST KANSAS

CITY           SKY/WX    TMP DP  RH WIND       PRES   REMARKS
GOODLAND       MOSUNNY   46  22  38 NW23G33   29.63F
HAYS           MOSUNNY   54  27  35 NW21G28   29.54F
HILL CITY      SUNNY     53  24  32 NW18G32   29.55F
RUSSELL        PTSUNNY   51  31  46 NW21      29.52F
$$

KSZ061>065-074>080-084>089-222100-
SOUTHWEST KANSAS

CITY           SKY/WX    TMP DP  RH WIND       PRES   REMARKS
DODGE CITY     PTSUNNY   52  22  30 NW18G31   29.60F
ELKHART          N/A     45  24  43 N9          N/A
GARDEN CITY    SUNNY     50  25  37 NW18G25   29.62F
GREAT BEND     PTSUNNY   52  34  50 NW22G28   29.55F
LIBERAL        MOSUNNY   52  30  43 N20       29.65F
PRATT          MOSUNNY   52  32  46 NW20G25   29.57F
$$

KSZ066>073-081>083-090>101-222100-
SOUTHEAST KANSAS

CITY           SKY/WX    TMP DP  RH WIND       PRES   REMARKS
CHANUTE        LGT RAIN  49  47  93 W9        29.48F
COFFEYVILLE    CLOUDY    50  48  93 W9        29.50S
HUTCHINSON     PTSUNNY   52  35  52 NW21G28   29.53F
MEDICINE LODGE   N/A     54  34  46 N22G31    29.56F
NEWTON         PTSUNNY   48  37  66 NW14      29.54S
PARSONS        CLOUDY    50  48  93 W8        29.50F
WICHITA INTL   PTSUNNY   50  39  66 NW12      29.54S
WICHITA JABRA  CLOUDY    49  39  68 NW15      29.53S
WICHITA MCCONL PTSUNNY   49  39  70 NW14      29.54S
WINFIELD       CLOUDY    50  42  74 NW18      29.54S
$$

KSZ007>012-019>026-033>040-048>060-102>105-222100-
NORTHEAST KANSAS

CITY           SKY/WX    TMP DP  RH WIND       PRES   REMARKS
CONCORDIA      PTSUNNY   49  36  61 NW17G28   29.47F
EMPORIA        CLOUDY    47  41  80 NW14G22   29.47F
LAWRENCE       CLOUDY    47  44  90 SW8       29.45F
MANHATTAN      CLOUDY    47  40  76 VRB6      29.48S
MARYSVILLE     CLOUDY    45  41  87 NW9       29.44S
OLATHE IND     CLOUDY    46  45  96 SW10      29.45F FOG
OLATHE EXE     LGT RAIN  45  45 100 SW7       29.44F FOG
SALINA         PTSUNNY   52  36  54 NW20G29   29.51F
TOPEKA BILLARD CLOUDY    50  45  83 W9        29.45F
TOPEKA FORBES  CLOUDY    49  43  80 W14       29.44F
$$



USA.gov is the U.S. government's official web portal to all federal, state and local government web resources and services.